Voltar ao catálogo

KUIPER-00543

AtivoComunicaçõesVLEO
NORAD 69612·PAYLOAD·🇺🇸 United States

Lançado Jun 17, 2026 de Guiana Space Centre

Loading…

Próximas Passagens (próximas 24 horas)

TLE

AtualizadoSource: CelesTrak SupGP

Época: Sep 14, 2026, 16:38 UTC

1 69612C 26140W   26257.69348380 -.00785990  00000+0 -60382-1 0  2576
2 69612  51.8956 328.3974 0004070 247.4819 265.5018 15.02019715    11

Acompanhe KUIPER-00543 em tempo real com AllMySat

Download on the App Store